�N����,����,�~����,�C��,���x,�C��,����,���ϕ���,�ő�u�ԕ���,�ő厞����,���˗�,�I�_���x,�n�����x,�ő啗���N��,DTYPE
"21/05/07","00:10",0.0,13.7,86.5,1011.4,313.2,1.6,2.2,322.5,0.00,11.5,130.0,"00:06:40",1
"21/05/07","00:20",0.0,13.9,86.8,1011.4,283.2,1.0,1.7,267.7,0.00,11.8,130.0,"00:10:02",1
"21/05/07","00:30",0.0,14.0,86.9,1011.4,308.1,1.2,2.0,319.9,0.00,11.9,130.0,"00:23:20",1
"21/05/07","00:40",0.0,14.0,86.9,1011.4,316.5,1.3,1.7,325.6,0.00,11.9,130.0,"00:33:28",1
"21/05/07","00:50",0.0,14.0,86.8,1011.6,303.0,0.6,1.3,325.7,0.00,11.9,130.0,"00:47:28",1
"21/05/07","01:00",0.0,14.0,86.9,1011.2,329.6,1.1,1.7,314.4,0.00,11.9,130.0,"00:52:08",1
"21/05/07","01:10",0.0,13.9,86.9,1011.2,317.4,1.3,1.9,318.2,0.00,11.8,130.0,"01:03:44",1
"21/05/07","01:20",0.0,13.8,87.2,1011.4,296.3,1.2,2.0,337.7,0.00,11.8,130.0,"01:16:24",1
"21/05/07","01:30",0.0,13.9,87.2,1011.2,306.7,1.5,2.0,318.6,0.00,11.8,130.0,"01:23:28",1
"21/05/07","01:40",0.0,13.9,87.1,1010.9,312.1,1.5,1.9,315.5,0.00,11.8,130.0,"01:32:40",1
"21/05/07","01:50",0.0,13.8,87.0,1010.9,290.6,1.2,1.8,317.5,0.00,11.7,130.0,"01:48:24",1
"21/05/07","02:00",0.0,13.9,86.7,1010.9,319.2,1.6,2.5,302.3,0.00,11.8,130.0,"01:56:00",1
"21/05/07","02:10",0.0,13.9,86.6,1011.2,339.6,1.2,1.8,325.5,0.00,11.7,130.0,"02:01:12",1
"21/05/07","02:20",0.0,13.7,86.5,1010.7,305.7,1.1,1.6,323.2,0.00,11.5,130.0,"02:19:36",1
"21/05/07","02:30",0.0,13.6,86.7,1010.7,328.1,1.6,2.1,322.1,0.00,11.5,130.0,"02:25:20",1
"21/05/07","02:40",0.0,13.1,87.0,1010.9,301.0,1.1,1.7,311.5,0.00,11.0,130.0,"02:30:08",1
"21/05/07","02:50",0.0,13.0,87.4,1010.9,319.8,1.2,2.0,323.4,0.00,11.0,130.0,"02:46:24",1
"21/05/07","03:00",0.0,13.1,87.5,1010.7,306.7,0.8,1.2,312.1,0.00,11.1,130.0,"02:51:36",1
"21/05/07","03:10",0.0,12.9,87.6,1010.7,300.9,1.1,1.4,320.2,0.00,10.9,130.0,"03:06:46",1
"21/05/07","03:20",0.0,12.8,87.8,1010.7,299.3,1.3,1.8,324.1,0.00,10.9,130.0,"03:14:28",1
"21/05/07","03:30",0.0,12.8,87.9,1010.2,294.7,0.8,1.2,305.9,0.00,10.9,130.0,"03:22:16",1
"21/05/07","03:40",0.0,12.8,88.0,1010.4,322.6,1.5,1.9,329.3,0.00,10.9,130.0,"03:36:06",1
"21/05/07","03:50",0.0,12.6,88.1,1010.2,309.4,0.5,1.1,318.1,0.00,10.7,130.0,"03:40:08",1
"21/05/07","04:00",0.0,12.4,88.3,1010.0,324.0,1.3,2.0,334.6,0.00,10.6,130.0,"03:55:20",1
"21/05/07","04:10",0.0,12.2,88.5,1010.0,318.2,1.2,1.6,327.1,0.00,10.4,130.0,"04:01:22",1
"21/05/07","04:20",0.0,12.0,88.7,1010.2,311.6,1.3,1.8,324.4,0.00,10.2,130.0,"04:12:50",1
"21/05/07","04:30",0.0,12.0,88.9,1009.7,331.8,1.3,1.7,314.0,0.00,10.3,130.0,"04:20:32",1
"21/05/07","04:40",0.0,11.7,89.1,1010.0,314.4,1.5,2.1,319.1,0.00,10.0,130.0,"04:30:40",1
"21/05/07","04:50",0.0,11.5,89.3,1009.7,306.4,0.8,1.3,308.5,0.00,9.8,130.0,"04:49:38",1
"21/05/07","05:00",0.0,11.5,89.6,1009.7,319.0,1.5,2.0,331.3,0.00,9.9,130.0,"04:58:40",1
"21/05/07","05:10",0.0,11.8,89.7,1010.0,318.3,1.3,2.0,325.3,0.00,10.2,130.0,"05:00:40",1
"21/05/07","05:20",0.0,12.1,89.7,1009.7,324.9,1.6,2.5,330.9,0.00,10.5,130.0,"05:12:56",1
"21/05/07","05:30",0.0,12.3,89.6,1009.7,287.6,0.5,1.0,336.7,0.00,10.7,130.0,"05:21:30",1
"21/05/07","05:40",0.0,12.1,89.7,1009.7,278.5,0.7,1.1,288.3,0.00,10.5,130.0,"05:39:24",1
"21/05/07","05:50",0.0,12.3,89.8,1010.2,315.4,1.2,1.8,331.0,0.00,10.7,130.0,"05:49:06",1
"21/05/07","06:00",0.0,12.4,89.7,1010.2,326.5,1.2,1.7,333.0,0.00,10.8,130.0,"05:50:08",1
"21/05/07","06:10",0.0,12.6,89.8,1010.2,294.1,0.8,1.3,293.4,0.02,11.0,130.0,"06:08:08",1
"21/05/07","06:20",0.0,12.8,89.7,1009.7,302.4,1.1,1.6,304.7,0.02,11.2,130.0,"06:18:24",1
"21/05/07","06:30",0.0,13.2,89.4,1009.7,312.2,1.2,1.7,310.7,0.03,11.5,130.0,"06:20:02",1
"21/05/07","06:40",0.0,13.8,89.3,1010.0,311.5,1.2,1.8,324.0,0.05,12.1,130.0,"06:31:20",1
"21/05/07","06:50",0.0,14.2,89.0,1010.0,295.9,1.2,1.7,314.8,0.07,12.5,130.0,"06:48:48",1
"21/05/07","07:00",0.0,14.4,87.7,1010.0,314.4,1.7,2.7,322.6,0.06,12.4,130.0,"06:58:48",1
"21/05/07","07:10",0.0,14.9,86.8,1010.0,304.8,1.3,2.5,323.4,0.06,12.8,130.0,"07:00:16",1
"21/05/07","07:20",0.0,15.4,85.2,1010.2,326.7,1.3,2.2,338.4,0.05,13.0,130.0,"07:12:16",1
"21/05/07","07:30",0.0,15.2,83.8,1009.7,317.1,1.5,2.4,334.6,0.03,12.5,130.0,"07:26:48",1
"21/05/07","07:40",0.0,15.5,82.3,1009.3,313.2,1.6,2.7,334.5,0.04,12.5,130.0,"07:31:12",1
"21/05/07","07:50",0.0,16.1,81.3,1009.5,262.5,0.8,1.4,240.9,0.06,12.9,130.0,"07:42:40",1
"21/05/07","08:00",0.0,16.3,79.8,1010.0,1.3,0.5,1.2,37.3,0.08,12.8,130.0,"07:54:48",1
"21/05/07","08:10",0.0,16.8,78.8,1009.5,343.0,0.6,1.3,326.3,0.08,13.1,130.0,"08:07:44",1
"21/05/07","08:20",0.0,16.9,77.8,1009.7,336.9,1.6,2.4,341.2,0.10,13.0,130.0,"08:14:40",1
"21/05/07","08:30",0.0,16.9,76.7,1009.5,343.0,1.1,1.7,341.1,0.05,12.8,130.0,"08:20:40",1
"21/05/07","08:40",0.0,17.1,75.6,1009.7,339.3,1.1,1.8,344.2,0.05,12.8,130.0,"08:39:36",1
"21/05/07","08:50",0.0,17.2,74.9,1009.5,299.8,0.8,1.7,334.9,0.06,12.8,130.0,"08:41:20",1
"21/05/07","09:00",0.0,17.4,74.5,1009.3,328.2,1.2,2.1,344.1,0.07,12.9,130.0,"08:50:02",1
"21/05/07","09:10",0.0,17.7,74.0,1009.5,312.8,1.2,1.9,336.6,0.09,13.1,130.0,"09:00:08",1
"21/05/07","09:20",0.0,17.9,73.2,1009.5,295.9,1.0,1.4,265.8,0.08,13.1,130.0,"09:11:44",1
"21/05/07","09:30",0.0,18.0,72.6,1009.0,308.6,0.8,1.2,323.2,0.08,13.0,130.0,"09:24:56",1
"21/05/07","09:40",0.0,18.5,71.9,1009.3,309.2,1.5,2.2,331.7,0.12,13.4,130.0,"09:34:48",1
"21/05/07","09:50",0.0,18.4,71.3,1009.0,275.2,1.1,1.8,305.0,0.08,13.2,130.0,"09:40:08",1
"21/05/07","10:00",0.0,18.5,71.5,1009.0,307.4,1.1,1.7,314.5,0.07,13.3,130.0,"09:57:44",1
"21/05/07","10:10",0.0,18.6,71.7,1009.0,321.4,0.8,1.3,329.4,0.06,13.4,130.0,"10:00:40",1
"21/05/07","10:20",0.0,18.6,71.6,1009.0,286.6,0.6,1.0,290.4,0.06,13.4,130.0,"10:10:40",1
"21/05/07","10:30",0.0,18.8,71.7,1008.8,285.6,0.5,1.1,283.7,0.07,13.6,130.0,"10:27:04",1
"21/05/07","10:40",0.0,18.7,71.7,1008.3,289.0,0.6,1.0,284.1,0.06,13.5,130.0,"10:31:20",1
"21/05/07","10:50",0.0,18.9,71.8,1008.3,285.6,0.7,1.0,279.0,0.08,13.7,130.0,"10:42:08",1
"21/05/07","11:00",0.0,18.9,71.7,1008.3,280.9,1.0,1.6,293.9,0.09,13.7,130.0,"10:54:16",1
"21/05/07","11:10",0.0,18.8,71.7,1008.6,282.6,0.7,1.0,250.5,0.06,13.6,130.0,"11:00:08",1
"21/05/07","11:20",0.0,18.9,71.9,1008.1,333.4,1.0,2.1,314.9,0.05,13.8,130.0,"11:19:12",1
"21/05/07","11:30",0.0,18.7,72.7,1008.3,314.4,1.3,1.9,311.0,0.06,13.7,130.0,"11:20:32",1
"21/05/07","11:40",0.0,19.1,73.1,1007.8,280.0,0.5,1.0,283.8,0.10,14.2,130.0,"11:30:16",1
"21/05/07","11:50",0.0,19.2,72.5,1007.8,271.3,0.5,1.0,301.5,0.09,14.2,130.0,"11:41:04",1
"21/05/07","12:00",0.0,19.2,72.0,1007.8,269.6,0.8,1.8,262.6,0.11,14.1,130.0,"11:57:28",1
"21/05/07","12:10",0.0,19.8,71.2,1007.6,292.4,0.8,1.6,335.8,0.19,14.5,130.0,"12:07:44",1
"21/05/07","12:20",0.0,19.7,70.0,1007.6,268.1,1.1,2.0,257.1,0.14,14.1,130.0,"12:11:04",1
"21/05/07","12:30",0.0,19.4,69.4,1007.8,202.9,0.8,1.7,146.9,0.12,13.7,130.0,"12:28:00",1
"21/05/07","12:40",0.0,19.8,69.0,1007.8,178.9,0.3,1.2,194.9,0.14,14.0,130.0,"12:30:24",1
"21/05/07","12:50",0.0,19.9,68.7,1007.1,174.1,0.3,0.9,139.6,0.15,14.0,130.0,"12:40:32",1
"21/05/07","13:00",0.0,19.4,67.8,1007.6,284.5,1.2,1.8,329.8,0.09,13.3,130.0,"12:56:56",1
"21/05/07","13:10",0.0,19.2,69.4,1007.1,175.4,1.1,2.6,216.9,0.07,13.5,130.0,"13:09:44",1
"21/05/07","13:20",0.0,18.9,70.3,1006.7,215.0,1.3,3.1,237.4,0.09,13.4,130.0,"13:10:40",1
"21/05/07","13:30",0.0,19.2,71.4,1006.9,237.4,1.1,2.6,196.4,0.14,13.9,130.0,"13:21:44",1
"21/05/07","13:40",0.0,19.2,69.2,1006.4,218.8,0.8,2.4,150.0,0.13,13.5,130.0,"13:39:20",1
"21/05/07","13:50",0.0,19.1,68.8,1006.2,209.1,0.5,1.6,238.7,0.10,13.3,130.0,"13:46:08",1
"21/05/07","14:00",0.0,19.4,68.7,1006.0,224.6,0.7,2.4,116.7,0.10,13.5,130.0,"13:50:02",1
"21/05/07","14:10",0.0,18.9,68.8,1006.0,150.1,1.1,2.2,121.2,0.06,13.1,130.0,"14:05:28",1
"21/05/07","14:20",0.0,19.0,68.6,1005.5,156.6,1.5,2.9,167.1,0.10,13.1,130.0,"14:19:04",1
"21/05/07","14:30",0.0,19.2,68.8,1006.0,151.1,1.2,2.6,139.6,0.13,13.4,130.0,"14:20:16",1
"21/05/07","14:40",0.0,18.8,69.4,1005.2,198.8,1.5,3.2,201.4,0.07,13.1,130.0,"14:30:40",1
"21/05/07","14:50",0.2,18.7,69.4,1005.0,166.0,1.2,2.6,182.6,0.06,13.0,130.0,"14:46:56",1
"21/05/07","15:00",0.0,18.9,71.0,1004.8,229.4,0.8,1.8,166.5,0.07,13.6,130.0,"14:50:48",1
"21/05/07","15:10",0.0,18.8,72.4,1005.2,285.2,1.1,2.4,242.8,0.06,13.8,130.0,"15:00:16",1
"21/05/07","15:20",0.0,18.7,75.5,1005.7,310.6,1.3,2.0,317.9,0.04,14.3,130.0,"15:10:48",1
"21/05/07","15:30",0.2,18.2,77.9,1005.5,304.4,1.2,1.9,310.6,0.03,14.3,130.0,"15:24:00",1
"21/05/07","15:40",0.2,17.9,79.8,1005.5,338.7,0.8,1.2,300.6,0.02,14.4,130.0,"15:30:24",1
"21/05/07","15:50",0.4,17.4,81.8,1005.2,343.8,1.1,1.8,342.5,0.01,14.3,130.0,"15:48:00",1
"21/05/07","16:00",0.6,17.0,83.7,1005.2,310.1,1.2,2.7,344.0,0.03,14.3,130.0,"15:51:52",1
"21/05/07","16:10",0.2,17.0,85.2,1005.2,321.5,1.5,2.5,326.0,0.01,14.5,130.0,"16:07:12",1
"21/05/07","16:20",0.4,16.8,86.4,1005.2,329.3,1.0,2.1,331.4,0.02,14.6,130.0,"16:11:02",1
"21/05/07","16:30",0.2,16.7,87.5,1005.5,279.6,1.1,2.7,327.0,0.01,14.7,130.0,"16:27:40",1
"21/05/07","16:40",0.0,16.6,88.3,1005.5,318.6,1.8,3.3,345.2,0.01,14.7,130.0,"16:38:58",1
"21/05/07","16:50",0.0,16.3,89.1,1005.2,310.6,1.6,2.4,319.4,0.00,14.5,130.0,"16:46:54",1
"21/05/07","17:00",0.0,16.2,89.7,1004.8,294.8,0.8,1.6,258.4,0.00,14.5,130.0,"16:51:32",1
"21/05/07","17:10",0.2,16.2,90.1,1005.0,260.9,0.5,1.1,113.8,0.00,14.6,130.0,"17:00:42",1
"21/05/07","17:20",0.0,16.5,90.7,1005.0,309.2,1.5,2.2,320.4,0.05,15.0,130.0,"17:14:04",1
"21/05/07","17:30",0.0,16.5,90.9,1005.0,277.4,1.2,2.1,260.1,0.06,15.0,130.0,"17:27:04",1
"21/05/07","17:40",0.0,16.4,91.3,1005.0,313.0,1.3,2.9,343.9,0.04,15.0,130.0,"17:38:00",1
"21/05/07","17:50",0.0,16.5,91.4,1004.8,342.3,0.5,1.8,330.6,0.04,15.1,130.0,"17:40:08",1
"21/05/07","18:00",0.0,16.7,91.5,1004.5,312.8,0.3,1.0,305.4,0.05,15.3,130.0,"17:52:32",1
"21/05/07","18:10",0.0,16.2,91.6,1004.8,176.2,0.7,1.7,188.8,0.03,14.9,130.0,"18:06:24",1
"21/05/07","18:20",0.0,16.0,90.6,1005.2,161.1,0.8,1.6,134.7,0.02,14.5,130.0,"18:18:08",1
"21/05/07","18:30",0.0,16.4,91.2,1005.0,255.7,1.0,1.7,313.6,0.01,15.0,130.0,"18:26:16",1
"21/05/07","18:40",0.0,16.2,90.9,1004.8,306.8,0.7,1.6,294.7,0.00,14.8,130.0,"18:30:24",1
"21/05/07","18:50",0.0,15.7,90.5,1004.5,229.9,0.5,1.3,212.8,0.00,14.2,130.0,"18:40:02",1
"21/05/07","19:00",0.0,15.4,90.8,1004.8,239.3,0.6,1.9,203.2,0.00,13.9,130.0,"18:51:04",1
"21/05/07","19:10",0.0,15.5,90.8,1004.5,274.4,1.0,1.7,312.3,0.00,14.0,130.0,"19:07:04",1
"21/05/07","19:20",0.0,15.5,91.0,1005.0,323.0,1.8,2.6,338.5,0.00,14.1,130.0,"19:15:28",1
"21/05/07","19:30",0.0,15.3,91.1,1005.5,344.4,1.6,2.9,344.7,0.00,13.9,130.0,"19:22:48",1
"21/05/07","19:40",0.0,14.9,91.3,1005.0,341.6,0.6,1.7,318.6,0.00,13.5,130.0,"19:30:32",1
"21/05/07","19:50",0.0,14.6,91.6,1005.2,336.9,1.6,2.2,334.8,0.00,13.3,130.0,"19:44:56",1
"21/05/07","20:00",0.0,14.3,91.8,1005.5,311.7,1.2,1.8,319.4,0.00,13.0,130.0,"19:52:32",1
"21/05/07","20:10",0.0,14.4,92.0,1005.5,331.6,1.0,1.7,326.8,0.00,13.2,130.0,"20:08:28",1
"21/05/07","20:20",0.0,14.3,92.2,1005.2,315.4,1.5,2.0,326.1,0.00,13.1,130.0,"20:17:12",1
"21/05/07","20:30",0.0,14.2,92.4,1005.7,317.8,1.6,1.9,326.3,0.00,13.0,130.0,"20:24:16",1
"21/05/07","20:40",0.0,14.3,92.7,1006.0,318.3,1.7,2.0,322.2,0.00,13.2,130.0,"20:38:48",1
"21/05/07","20:50",0.0,14.2,92.8,1006.0,313.8,1.8,2.5,307.8,0.00,13.1,130.0,"20:49:12",1
"21/05/07","21:00",0.0,14.1,93.0,1006.2,309.6,1.7,2.4,338.0,0.00,13.0,130.0,"20:57:12",1
"21/05/07","21:10",0.0,14.2,93.2,1006.2,309.7,1.3,2.2,335.4,0.00,13.2,130.0,"21:02:48",1
"21/05/07","21:20",0.0,14.1,93.4,1005.7,327.5,1.5,2.0,311.6,0.00,13.1,130.0,"21:17:28",1
"21/05/07","21:30",0.0,14.1,93.5,1006.2,303.6,1.3,1.7,306.3,0.00,13.1,130.0,"21:29:52",1
"21/05/07","21:40",0.0,14.1,93.7,1006.2,324.2,1.6,2.1,308.1,0.00,13.1,130.0,"21:39:28",1
"21/05/07","21:50",0.0,14.2,93.8,1006.0,320.7,1.7,2.5,323.5,0.00,13.3,130.0,"21:49:36",1
"21/05/07","22:00",0.0,14.1,93.9,1006.2,296.2,1.3,1.8,309.8,0.00,13.2,130.0,"21:53:52",1
"21/05/07","22:10",0.0,14.1,94.0,1006.4,302.1,1.5,2.6,324.9,0.00,13.2,130.0,"22:07:52",1
"21/05/07","22:20",0.0,14.1,94.1,1006.2,315.9,1.7,2.2,331.3,0.00,13.2,130.0,"22:15:04",1
"21/05/07","22:30",0.0,14.0,94.2,1006.0,284.8,1.0,1.6,306.2,0.00,13.1,130.0,"22:21:28",1
"21/05/07","22:40",0.0,14.0,94.2,1006.0,293.9,1.0,1.3,308.6,0.00,13.1,130.0,"22:32:08",1
"21/05/07","22:50",0.0,13.9,94.4,1006.2,313.5,1.8,2.7,330.1,0.00,13.1,130.0,"22:44:56",1
"21/05/07","23:00",0.0,13.8,94.5,1005.5,302.7,1.5,2.5,310.8,0.00,13.0,130.0,"22:50:16",1
"21/05/07","23:10",0.0,13.8,94.6,1005.7,310.3,1.3,2.2,325.6,0.00,13.0,130.0,"23:06:40",1
"21/05/07","23:20",0.0,13.8,94.7,1005.7,316.5,1.8,2.6,319.4,0.00,13.0,130.0,"23:17:36",1
"21/05/07","23:30",0.0,13.7,94.8,1006.0,302.0,1.6,2.9,307.8,0.00,12.9,130.0,"23:23:12",1
"21/05/07","23:40",0.0,13.7,94.9,1005.7,310.1,1.3,1.9,332.2,0.00,12.9,130.0,"23:33:44",1
"21/05/07","23:50",0.0,13.7,94.9,1005.5,313.1,1.1,1.7,326.5,0.00,12.9,130.0,"23:48:16",1
"21/05/07","24:00",0.0,13.8,95.0,1005.7,318.5,1.5,1.9,329.1,0.00,13.1,130.0,"23:50:24",1
